1298246429407,0.649919
1298246489407,0.641571
1298246549407,0.645076
1298246609407,0.646190
1298246669407,0.646214
1298246729407,0.638469
1298246789407,0.642087
1298246849407,0.635522
1298246909407,0.637027
1298246969407,0.644694
1298247029407,0.645122
1298247089407,0.639720
1298247149407,0.645819
1298247209407,0.637279
1298247269407,0.630993
1298247329407,0.635081
1298247389407,0.640458
1298247449407,0.639790
1298247509407,0.637940
1298247569407,0.642199
1298247629407,0.638430
1298247689407,0.634787
1298247749407,0.636417
1298247809407,0.644055
1298247869407,0.631323
1298247929407,0.632020
1298247989407,0.638819
1298248049407,0.633787
1298248109407,0.639889
1298248169407,0.640010
1298248229407,0.636417
1298248289407,0.638871
1298248349407,0.630176
1298248409407,0.634414
1298248469407,0.631318
1298248529407,0.631455
1298248589407,0.628527
1298248649407,0.632372
1298248709407,0.635188
1298248769407,0.632289
1298248829407,0.630771
1298248889407,0.635774
1298248949407,0.631590
1298249009407,0.636104
1298249069407,0.630359
1298249129407,0.629561
1298249189407,0.631780
1298249249407,0.633697
1298249309407,0.639049
1298249369407,0.632289
1298249429407,0.633692
1298249489407,0.638796
1298249549407,0.629656
1298249609407,0.630540
1298249669407,0.636033
1298249729407,0.641123
1298249789407,0.630930
1298249849407,0.635656
1298249909407,0.626398
1298249969407,0.633750
1298250029418,0.628140
1298250089418,0.627840
1298250149418,0.630336
1298250209418,0.632138
1298250269418,0.629501
1298250329418,0.629898
1298250389418,0.634496
1298250449418,0.628553
1298250509418,0.630154
1298250569418,0.632440
1298250629418,0.634710
1298250689418,0.635418
1298251229418,0.627965
1298251289418,0.626035
1298251349418,0.624795
1298251409418,0.631296
1298251469418,0.632229
1298251529418,0.630135
1298251589418,0.635487
1298251649418,0.634334
1298251709418,0.626854
1298251769418,0.635360
1298251829418,0.628035
1298251889418,0.628722
1298251949418,0.632345
1298252009418,0.638683
1298252069418,0.630009
1298252129418,0.628997
1298252189418,0.633454
1298252249418,0.626223
1298252309418,0.630014
1298252369418,0.627351
1298252429418,0.632421
1298252489418,0.634893
1298252549418,0.632623
1298252609418,0.634589
1298252669418,0.637876
1298252729418,0.644443
1298252789418,0.639165
1298252849418,0.642434
1298252909418,0.643283
1298252969418,0.645355
1298253029418,0.647468
1298253089418,0.638182
1298253149418,0.643040
1298253209418,0.645617
1298253269418,0.636801
1298253329418,0.638240
1298253389418,0.632676
1298253449418,0.633642
1298253509418,0.631583
1298253569418,0.635436
1298253629430,0.635250
1298253689430,0.639482
1298253749430,0.638769
1298253809430,0.636209
1298253869430,0.638053
1298253929430,0.636252
1298253989430,0.634440
1298254049430,0.633336
1298254109430,0.632665
1298254169430,0.631883
1298254229430,0.639108
1298254289430,0.632703
1298254349430,0.636955
1298254409430,0.642072
1298254469430,0.635317
1298254529430,0.634299
1298254589430,0.641165
1298254649430,0.637935
1298254709430,0.644822
1298254769430,0.641939
1298254829430,0.647245
1298254889430,0.647748
1298254949430,0.651001
1298255009430,0.657047
1298255069430,0.663626
1298255129430,0.675193
1298255189430,0.684208
1298255249430,0.689753
1298255309430,0.679758
1298255369430,0.656515
1298255429430,0.660514
1298255489430,0.656778
1298255549430,0.658861
1298255609430,0.651422
1298255669430,0.647563
1298255729430,0.656948
1298255789430,0.654804
1298255849430,0.651754
1298255909430,0.652564
1298255969430,0.649540
1298256029430,0.654664
1298256089430,0.647955
1298256149430,0.655234
1298256209430,0.657625
1298256269430,0.662021
1298256329430,0.650741
1298256389430,0.654213
1298256449430,0.658336
1298256509430,0.655597
1298256569430,0.658930
1298256629430,0.661614
1298256689430,0.649338
1298256749430,0.655322
1298256809430,0.661179
1298256869430,0.657448
1298256929430,0.658272
1298256989430,0.655605
1298257049430,0.655589
1298257109430,0.654061
1298257169430,0.657633
1298257229442,0.647323
1298257289442,0.646565
1298257349442,0.646546
1298257409442,0.648801
1298257469442,0.647858
1298257529442,0.649947
1298257589442,0.650099
1298257649442,0.655785
1298257709442,0.646388
1298257769442,0.649837
1298257829442,0.646622
1298257889442,0.648760
1298257949442,0.647932
1298258009442,0.641069
1298258069442,0.652109
1298258129442,0.646379
1298258189442,0.660111
1298258249442,0.665643
1298258309442,0.663790
1298258369442,0.653794
1298258429442,0.655070
1298258489442,0.648128
1298258549442,0.640323
1298258609442,0.640812
1298258669442,0.639862
1298258729442,0.644164
1298258789442,0.640444
1298258849442,0.642206
1298258909442,0.648347
1298258969442,0.647679
1298259029442,0.636883
1298259089442,0.637816
1298259149442,0.638101
1298259209442,0.639534
1298259269442,0.639057
1298259329442,0.640215
1298259389442,0.640069
1298259449442,0.641160
1298259509442,0.640293
1298259569442,0.638892
1298259629442,0.649512
1298259689442,0.650117
1298259749442,0.649183
1298259809442,0.647831
1298259869442,0.639064
1298259929442,0.648675
1298259989442,0.641524
1298260049442,0.644822
1298260109442,0.637299
1298260169442,0.633524
1298260229442,0.637395
1298260289442,0.633649
1298260349442,0.640553
1298260409442,0.637493
1298260469442,0.642049
1298260529442,0.632089
1298260589442,0.632786
1298260649442,0.635897
1298260709442,0.640227
1298260769442,0.627128
1298260829454,0.637886
1298260889454,0.632043
1298260949454,0.634211
1298261009454,0.640796
1298261069454,0.638701
1298261129454,0.647858
1298261189454,0.641859
1298261249454,0.644937
1298261309454,0.644415
1298261369454,0.650091
1298261429454,0.647396
1298261489454,0.650468
1298261549454,0.662906
1298261609454,0.660788
1298261669454,0.649494
1298261729454,0.648259
1298261789454,0.642493
1298261849454,0.645421
1298261909453,0.641765
1298261969453,0.642261
1298262029454,0.641782
1298262089454,0.640988
1298262149454,0.641322
1298262209454,0.640973
1298262269454,0.651990
1298262329454,0.646073
1298262389454,0.644457
1298262449454,0.639868
1298262509454,0.645850
1298262569454,0.649414
1298262629454,0.649588
1298262689454,0.643085
1298262749454,0.642633
1298262809454,0.641671
1298262869454,0.640481
1298262929454,0.639523
1298262989454,0.644470
1298263049454,0.646527
1298263109454,0.644116
1298263169454,0.641134
1298263229453,0.633494
1298263289453,0.640196
1298263349454,0.641614
1298263409454,0.638617
1298263469454,0.632724
1298263529454,0.632546
1298263589454,0.635879
1298263649454,0.628683
1298263709454,0.635468
1298263769454,0.630519
1298263829454,0.630127
1298263889454,0.633262
1298263949454,0.629685
1298264009454,0.631282
1298264069454,0.627849
1298264129454,0.630766
1298264189454,0.635178
1298264249454,0.628326
1298264309454,0.626947
1298264369454,0.631805
1298264429465,0.633149
1298264489465,0.623794
1298264549465,0.634868
1298264609465,0.626655
1298264669465,0.634760
1298264729465,0.634609
1298264789465,0.655932
1298264849465,0.672315
1298264909465,0.668800
1298264969465,0.659087
1298265029465,0.644236
1298265089465,0.639116
1298265149465,0.642448
1298265209465,0.633119
1298265269465,0.640655
1298265329465,0.637753
1298265389465,0.641856
1298265449465,0.644828
1298265509465,0.641041
1298265569465,0.645394
1298265629465,0.641382
1298265689465,0.646372
1298265749465,0.633199
1298265809465,0.642544
1298265869465,0.648756
1298265929465,0.640938
1298265989465,0.642328
1298266049465,0.646454
1298266109465,0.641298
1298266169465,0.641250
1298266229465,0.633591
1298266289465,0.642509
1298266349465,0.641280
1298266409465,0.637662
1298266469465,0.644708
1298266529465,0.635434
1298266589465,0.641865
1298266649465,0.645328
1298266709465,0.629842
1298266769465,0.634935
1298266829465,0.633774
1298266889465,0.641405
1298266949465,0.634743
1298267009465,0.636783
1298267069465,0.639129
1298267129465,0.626069
1298267189465,0.633522
1298267249465,0.627582
1298267309465,0.633768
1298267369465,0.632785
1298267429465,0.632452
1298267489465,0.628414
1298267549465,0.633084
1298267609465,0.632835
1298267669465,0.635237
1298267729465,0.628314
1298267789465,0.629409
1298267849465,0.626463
1298267909465,0.628542
1298267969465,0.631532
1298268029477,0.625623
1298268089477,0.623828
1298268149477,0.623722
1298268209477,0.623240
1298268269477,0.625266
1298268329477,0.625737
1298268389477,0.629583
1298268449477,0.633230
1298268509477,0.640322
1298268569477,0.642673
1298268629477,0.675070
1298268689477,0.691949
1298268749477,0.689154
1298268809477,0.684890
1298268869477,0.669306
1298268929477,0.661423
1298268989477,0.652952
1298269049477,0.649926
1298269109477,0.647412
1298269169477,0.651213
1298269229477,0.650018
1298269289477,0.650609
1298269349477,0.659265
1298269409477,0.651004
1298269469477,0.656625
1298269529477,0.653061
1298269589477,0.653384
1298269649477,0.654026
1298269709477,0.660158
1298269769477,0.661145
1298269829477,0.661608
1298269889477,0.659489
1298269949477,0.660709
1298270009477,0.657096
1298270069477,0.658844
1298270129477,0.650713
1298270189477,0.656098
1298270249477,0.653999
1298270309477,0.651026
1298270369477,0.650541
1298270429477,0.654657
1298270489477,0.647867
1298270549477,0.649287
1298270609477,0.647593
1298270669477,0.644283
1298270729477,0.648937
1298270789477,0.644624
1298270849477,0.646044
1298270909477,0.633566
1298270969477,0.643013
1298271029477,0.642073
1298271089477,0.636885
1298271149477,0.643558
1298271209477,0.638913
1298271269477,0.642229
1298271329477,0.638352
1298271389477,0.636803
1298271449477,0.634607
1298271509477,0.637159
1298271569477,0.630759
1298271629489,0.624060
1298271689489,0.629808
1298271749489,0.633331
1298271809489,0.627588
1298271869489,0.635341
1298271929489,0.628806
1298271989489,0.631473
1298272049489,0.626371
1298272109489,0.631437
1298272169489,0.623915
1298272229489,0.629706
1298272289489,0.623181
1298272349489,0.625049
1298272409489,0.619500
1298272469489,0.626352
1298272529489,0.628036
1298272589489,0.626794
1298272649489,0.625472
1298272709489,0.625770
1298272769489,0.621692
1298272829489,0.629187
1298272889489,0.625364
1298272949489,0.626519
1298273009489,0.622479
1298273069489,0.626298
1298273129489,0.615284
1298273189489,0.620057
1298273249489,0.618051
1298273309489,0.622994
1298273369489,0.620499
1298273429489,0.615823
1298273489489,0.619583
1298273549489,0.619235
1298273609489,0.620463
1298273669489,0.613995
1298273729489,0.622725
1298273789489,0.616851
1298273849489,0.624201
1298273909489,0.618294
1298273969489,0.617700
1298274029489,0.623307
1298274089489,0.614252
1298274149489,0.609129
1298274209489,0.620167
1298274269489,0.619176
1298274329489,0.620752
1298274389489,0.614714
1298274449489,0.615632
1298274509489,0.621897
1298274569489,0.619550
1298274629489,0.613848
1298274689489,0.621164
1298274749489,0.620027
1298274809489,0.619578
1298274869489,0.619799
1298274929489,0.615826
1298274989489,0.622992
1298275049489,0.616254
1298275109489,0.618689
1298275169489,0.624101
1298275229501,0.622223
1298275289501,0.622961
1298275349501,0.618460
1298275409501,0.621592
1298275469501,0.618933
1298275529501,0.620935
1298275589501,0.620657
1298275649501,0.627576
1298275709501,0.624343
1298275769501,0.623018
1298275829501,0.620452
1298275889501,0.628318
1298275949501,0.622489
1298276009501,0.628786
1298276069501,0.624571
1298276129501,0.620620
1298276189501,0.629197
1298276249501,0.623265
1298276309501,0.630532
1298276369501,0.630758
1298276429501,0.629160
1298276489501,0.625529
1298276549501,0.627023
1298276609501,0.634658
1298276669501,0.627291
1298276729501,0.628208
1298276789501,0.632971
1298276849501,0.627321
1298276909501,0.632979
1298276969501,0.630867
1298277029501,0.625880
1298277089501,0.624587
1298277149501,0.634054
1298277209501,0.627423
1298277269501,0.625556
1298277329501,0.631483
1298277389501,0.629098
1298277449501,0.632348
1298277509501,0.632856
1298277569501,0.635027
1298277629501,0.634194
1298277689501,0.630947
1298277749501,0.629408
1298277809501,0.632344
1298277869501,0.628686
1298277929501,0.630124
1298277989501,0.634798
1298278049501,0.636139
1298278109501,0.634615
1298278169501,0.631895
1298278229501,0.632268
1298278289501,0.634900
1298278349501,0.631073
1298278409501,0.634763
1298278469501,0.633902
1298278529501,0.631063
1298278589501,0.628476
1298278649501,0.631816
1298278709501,0.630108
1298278769501,0.624069
1298278829513,0.631569
1298278889513,0.628622
1298278949513,0.628878
1298279009513,0.624810
1298279069513,0.636589
1298279129513,0.633458
1298279189513,0.649756
1298279249513,0.653962
1298279309513,0.651098
1298279369513,0.651945
1298279429513,0.645444
1298279489513,0.639880
1298279549513,0.643006
1298279609513,0.635011
1298279669513,0.643058
1298279729513,0.633788
1298279789513,0.631048
1298279849514,0.635843
1298279909513,0.632720
1298279969513,0.630145
1298280029513,0.648045
1298280089513,0.642792
1298280149513,0.641885
1298280209513,0.639221
1298280269513,0.637140
1298280329513,0.642113
1298280389513,0.640076
1298280449513,0.643763
1298280509513,0.638321
1298280569513,0.641821
1298280629513,0.642276
1298280689513,0.636868
1298280749513,0.635333
1298280809513,0.641291
1298280869513,0.641701
1298280929513,0.624975
1298280989513,0.635357
1298281049513,0.635438
1298281109513,0.633589
1298281169514,0.632877
1298281229514,0.633202
1298281289513,0.636404
1298281349513,0.632383
1298281409513,0.637016
1298281469513,0.627391
1298281529513,0.628715
1298281589513,0.625639
1298281649513,0.627960
1298281709513,0.625562
1298281769513,0.627953
1298281829513,0.629004
1298281889513,0.622334
1298281949513,0.623368
1298282009513,0.630823
1298282069513,0.625346
1298282129513,0.624524
1298282189513,0.629614
1298282249513,0.626104
1298282309513,0.624775
1298282369513,0.627454
1298282429526,0.622336
1298282489526,0.621506
1298282549526,0.623472
1298282609526,0.631259
1298282669526,0.636144
1298282729526,0.644216
1298282789526,0.646802
1298282849526,0.642520
1298282909526,0.635199
1298282969526,0.637582
1298283029526,0.642537
1298283089526,0.654091
1298283149526,0.655692
1298283209526,0.657305
1298283269526,0.669805
1298283329526,0.676553
1298283389526,0.687219
1298283449526,0.688891
1298283509526,0.687671
1298283569526,0.697028
1298283629526,0.696457
1298283689526,0.699502
1298283749526,0.698560
1298283809526,0.698838
1298283869526,0.699834
1298283929526,0.704555
1298283989526,0.698015
1298284049526,0.694259
1298284109526,0.698677
1298284169526,0.694780
1298284229526,0.681494
1298284289526,0.696857
1298284349526,0.687839
1298284409526,0.688771
1298284469526,0.724505
1298284529526,0.687155
1298284589526,0.672463
1298284649526,0.680734
1298284709526,0.669455
1298284769526,0.668003
1298284829526,0.661227
1298284889526,0.658682
1298284949526,0.657159
1298285009526,0.652343
1298285069526,0.652409
1298285129526,0.650081
1298285189526,0.645581
1298285249526,0.640424
1298285309526,0.645969
1298285369526,0.639720
1298285429526,0.641937
1298285489526,0.636625
1298285549526,0.644140
1298285609526,0.641147
1298285669526,0.637524
1298285729526,0.640884
1298285789526,0.642005
1298285849526,0.639675
1298285909526,0.635976
1298285969526,0.635715
1298286029538,0.637957
1298286089538,0.643631
1298286149538,0.634792
1298286209538,0.631736
1298286269538,0.634950
1298286329538,0.631963
1298286389538,0.628778
1298286449538,0.629016
1298286509538,0.630057
1298286569538,0.634700
1298286629538,0.629294
1298286689538,0.627810
1298286749538,0.619161
1298286809538,0.625624
1298286869538,0.626197
1298286929538,0.623604
1298286989538,0.623225
1298287049538,0.627252
1298287109538,0.629331
1298287169538,0.617550
1298287229538,0.623277
1298287289538,0.620626
1298287349538,0.617818
1298287409538,0.626358
1298287469538,0.620772
1298287529538,0.622098
1298287589538,0.620800
1298287649538,0.619472
1298287709538,0.623632
1298287769538,0.616344
1298287829538,0.621943
1298287889538,0.619636
1298287949538,0.617995
1298288009538,0.621621
1298288069538,0.613623
1298288129538,0.617349
1298288189538,0.617174
1298288249538,0.619063
1298288309538,0.616995
1298288369538,0.618501
1298288429538,0.617655
1298288489538,0.626646
1298288549538,0.623640
1298288609538,0.622021
1298288669538,0.627343
1298288729538,0.628892
1298288789538,0.632532
1298288849538,0.637283
1298288909538,0.630808
1298288969538,0.634650
1298289029538,0.633170
1298289089538,0.636591
1298289149538,0.633322
1298289209538,0.634999
1298289269538,0.636427
1298289329538,0.628845
1298289389538,0.633539
1298289449538,0.636753
1298289509538,0.626235
1298289569538,0.637074
1298289629550,0.626431
1298289689550,0.624683
1298289749550,0.623779
1298289809550,0.618547
1298289869550,0.621485
1298289929550,0.626282
1298289989550,0.625091
1298290049550,0.621251
1298290109550,0.627838
1298290169550,0.620850
1298290229550,0.624789
1298290289550,0.617288
1298290349550,0.617675
1298290409550,0.624069
1298290469550,0.618506
1298290529550,0.619650
1298290589550,0.625066
1298290649550,0.623030
1298290709550,0.622148
1298290769550,0.619803
1298290829550,0.623245
1298290889550,0.617022
1298290949550,0.620703
1298291009550,0.622550
1298291069550,0.626990
1298291129550,0.610862
1298291189550,0.618102
1298291249550,0.613012
1298291309550,0.620391
1298291369550,0.620324
1298291429550,0.613806
1298291489550,0.620340
1298291549550,0.623315
1298291609550,0.619007
1298291669550,0.618816
1298291729550,0.618291
1298291789550,0.617982
1298291849550,0.616984
1298291909550,0.623097
1298291969550,0.623562
1298292029550,0.620454
1298292089550,0.615310
1298292149550,0.619117
1298292209550,0.623370
1298292269550,0.620851
1298292329550,0.618865
1298292389550,0.614672
1298292449550,0.616356
1298292509550,0.621205
1298292569550,0.611157
1298292629550,0.607026
1298292689550,0.614688
1298292749550,0.606581
1298292809550,0.623325
1298292869550,0.608842
1298292929550,0.612015
1298292989550,0.613878
1298293049550,0.614754
1298293109550,0.616083
1298293169550,0.616116
1298293229562,0.612569
1298293289562,0.609377
1298293349562,0.614613
1298293409562,0.613104
1298293469562,0.607329
1298293529562,0.613260
1298293589562,0.614021
1298293649562,0.611857
1298293709562,0.609108
1298293769562,0.613591
1298293829562,0.610259
1298293889562,0.614352
1298293949562,0.618592
1298294009562,0.620157
1298294069562,0.613405
1298294129562,0.614105
1298294189562,0.615184
1298294249562,0.612249
1298294309562,0.613330
1298294369562,0.615863
1298294429562,0.616479
1298294489562,0.611936
1298294549562,0.611198
1298294609562,0.612717
1298294669562,0.614380
1298294729562,0.614142
1298294789562,0.608570
1298294849562,0.608265
1298294909562,0.612935
1298294969562,0.613678
1298295029562,0.614757
1298295089562,0.610066
1298295149562,0.608940
1298295209562,0.609571
1298295269562,0.610101
1298295329562,0.605341
1298295389562,0.612332
1298295449562,0.615054
1298295509562,0.616524
1298295569562,0.615028
1298295629562,0.615000
1298295689562,0.614410
1298295749562,0.610162
1298295809562,0.611999
1298295869562,0.613014
1298295929562,0.619386
1298295989562,0.617836
1298296049562,0.614574
1298296109562,0.614546
1298296169562,0.610662
1298296229562,0.609082
1298296289562,0.612275
1298296349562,0.607743
1298296409562,0.609696
1298296469562,0.611795
1298296529562,0.612032
1298296589562,0.607727
1298296649562,0.609588
1298296709562,0.603596
1298296769562,0.605845
1298296829574,0.607533
1298296889574,0.608519
1298296949574,0.612008
1298297009574,0.608685
1298297069574,0.611603
1298297129574,0.613792
1298297189574,0.609627
1298297249574,0.611275
1298297309574,0.612058
1298297369574,0.607600
1298297429574,0.604493
1298297489574,0.615776
1298297549574,0.601790
1298297609574,0.607604
1298297669574,0.612109
1298297729574,0.610315
1298297789574,0.607680
1298297849574,0.609394
1298297909574,0.609592
1298297969574,0.612393
1298298029574,0.616489
1298298089574,0.610804
1298298149574,0.608075
1298298209574,0.608996
1298298269574,0.604407
1298298329574,0.608281
1298298389574,0.609229
1298298449574,0.611370
1298298509574,0.606344
1298298569574,0.615891
1298298629574,0.611727
1298298689574,0.610102
1298298749574,0.608941
1298298809574,0.612105
1298298869574,0.613084
1298298929574,0.602416
1298298989574,0.611156
1298299049574,0.612497
1298299109574,0.613015
1298299169574,0.609254
1298299229574,0.607643
1298299289574,0.613002
1298299349574,0.607820
1298299409574,0.610309
1298299469574,0.603214
1298299529574,0.608067
1298299589574,0.606965
1298299649574,0.605925
1298299709574,0.604012
1298299769574,0.612997
1298299829574,0.607288
1298299889574,0.602504
1298299949574,0.604743
1298300009574,0.604629
1298300069574,0.611488
1298300129574,0.607354
1298300189574,0.603345
1298300249574,0.611857
1298300309574,0.611777
1298300369574,0.604093
1298300429586,0.612042
1298300489586,0.606324
1298300549586,0.609819
1298300609586,0.611817
1298300669586,0.612265
1298300729586,0.607459
1298300789586,0.611250
1298300849586,0.603550
1298300909586,0.608432
1298300969586,0.615240
1298301029586,0.608234
1298301089586,0.611869
1298301149586,0.606468
1298301209586,0.609272
1298301269586,0.606248
1298301329586,0.610465
1298301389586,0.610940
1298301449586,0.612688
1298301509586,0.603176
1298301569586,0.608425
1298301629586,0.607933
1298301689586,0.610198
1298301749586,0.609701
1298301809586,0.609985
1298301869586,0.608793
1298301929586,0.607248
1298301989586,0.610428
1298302049586,0.603194
1298302109586,0.603000
1298302169586,0.606997
1298302229586,0.606908
1298302289586,0.608688
1298302349586,0.608134
1298302409586,0.608760
1298302469586,0.608308
1298302529586,0.611903
1298302589586,0.610213
1298302649586,0.611413
1298302709586,0.610027
1298302769586,0.607826
1298302829586,0.611347
1298302889586,0.611462
1298302949586,0.611602
1298303009586,0.619455
1298303069586,0.613276
1298303129586,0.618447
1298303189586,0.619992
1298303249586,0.624863
1298303309586,0.620897
1298303369586,0.618401
1298303429586,0.628649
1298303489586,0.630389
1298303549586,0.628228
1298303609586,0.630271
1298303669586,0.634072
1298303729586,0.632264
1298303789586,0.630723
1298303849586,0.634467
1298303909586,0.635934
1298303969586,0.640035
1298304029598,0.639489
1298304089598,0.640178
1298304149598,0.642505
1298304209598,0.641088
1298304269598,0.637109
1298304329598,0.636007
1298304389598,0.632980
1298304449598,0.637426
1298304509598,0.636817
1298304569598,0.637153
1298304629598,0.639456
1298304689598,0.631039
1298304749598,0.636282
1298304809598,0.621132
1298304869598,0.636725
1298304929598,0.636465
1298304989598,0.633917
1298305049598,0.626275
1298305109598,0.625793
1298305169598,0.622497
1298305229598,0.621397
1298305289598,0.622555
1298305349598,0.620108
1298305409598,0.622849
1298305469598,0.619951
1298305529598,0.620516
1298305589598,0.620177
1298305649598,0.617929
1298305709598,0.620591
1298305769598,0.619347
1298305829598,0.611836
1298305889598,0.616604
1298305949598,0.609459
1298306009598,0.612300
1298306069598,0.616059
1298306129598,0.617802
1298306189598,0.611083
1298306249598,0.614136
1298306309598,0.609719
1298306369598,0.615739
1298306429598,0.611531
1298306489598,0.608942
1298306549598,0.612216
1298306609598,0.612393
1298306669598,0.611028
1298306729598,0.602402
1298306789598,0.612555
1298306849598,0.613168
1298306909598,0.608335
1298306969598,0.607388
1298307029598,0.612385
1298307089598,0.607962
1298307149598,0.609043
1298307209598,0.615216
1298307269598,0.612175
1298307329598,0.610019
1298307389598,0.615825
1298307449598,0.612351
1298307509598,0.613656
1298307569598,0.614381
1298307629609,0.603145
1298307689609,0.607934
1298307749609,0.615147
1298307809609,0.611377
1298307869609,0.614241
1298307929609,0.606718
1298307989609,0.610102
1298308049609,0.610653
1298308109609,0.612410
1298308169609,0.608381
1298308229609,0.611203
1298308289609,0.614691
1298308349609,0.611420
1298308409609,0.611773
1298308469609,0.613045
1298308529609,0.613786
1298308589609,0.610961
1298308649609,0.620192
1298308709609,0.616187
1298308769609,0.617204
1298308829609,0.618152
1298308889609,0.617166
1298308949609,0.617420
1298309009609,0.615120
1298309069609,0.629057
1298309129609,0.622812
1298309189609,0.617440
1298309249609,0.617787
1298309309609,0.619370
1298309369609,0.620265
1298309429609,0.615608